View from above orbital plane
|
View from above satellite
|
Ground track
|
The orbit data is extracted from the following two-line orbital elements,
1 39679U 14021B 21058.83052694 .00000433 00000-0 38933-4 0 9995
2 39679 51.6166 2.0010 0171232 110.8933 251.0463 15.06772423377527
Epoch (UTC): | 27 February 2021 19:55:57 |
Eccentricity: | 0.0171232 |
inclination: | 51.6166° |
perigee height: | 427 km |
apogee height: | 664 km |
right ascension of ascending node: | 2.0010° |
argument of perigee: | 110.8933° |
revolutions per day: | 15.06772423 |
mean anomaly at epoch: | 251.0463° |
orbit number at epoch: | 37752 |
The dashed part of the orbit path shows where the satellite is in the earth's shadow,
|
|